ARIANE 5 DEB, 43382

Orbit data source: Space-Track

ARIANE 5 DEB, 43382 is space debris in HEO originally from a launch on Thu, 12 Jun 2008 UTC launched from the French Guiana (FRGUI). Debris objects in space refer to the collection of defunct objects orbiting the Earth. Examples of debris include non-operational satellites, rocket bodies, and fragments generated from explosions, collisions, or faulty payload assembly.

Loading next visibility...
Identifier
43382, 2008-030E
Orbit
HEO
Last TLE update
11 hours ago
Origin
Manufacturer
Thales Alenia
Mission
Spacecraft
Bus & Motor
Unknown
Mass
Unknown
Launch date (UTC)
2008-06-12 (17 years ago)
Launch vehicle
Unknown
Launch site
French Guiana (FRGUI)
Object type
Payload
Rocket body
Debris
Shape & HBR
Unknown
Radar Cross Section
Large (>1 m²)

Expand to show TLE details & history

TLE from 11 hours ago
0 ARIANE 5 DEB
1 43382U 08030E   25192.50554939  .00007129  00000-0  23467-2 0  9993
2 43382   1.5741 157.0654 7070343 314.4137   5.9272  2.54231045104685
Epoch: 2025-07-11T12:07Z
TLE epoch observation values (Epoch: 2025-07-11T12:07:59.467Z)
Latitude
-0°
Longitude
44.91348°
Altitude
1,160.17 km
Speed
9.389 km/s
True Right ascension
10h 26m 16s
True Declination
0° 00' 00"
Sunlit
Object was in daylight at epoch
Visualization orbit readout
Latitude
1.5049°
Longitude
152.55122°
Altitude
24,020.262 km
Speed
2.941 km/s
Apparent Right ascension
18h 13m 48s
Apparent Declination
-6° 09' 05"
Sunlit
Object is in daylight
Visualization observer readout
Local Sidereal Time
11:55:59
Azimuth
91.884° ESE
Elevation
-7.356°
Doppler factor
1
Orbital elements
Apogee altitude
32,341.418 km
Perigee altitude
267.014 km
Semi-major axis
22,682.353 km
Eccentricity
0.70703
Inclination
1.5741°
RAAN
157.0654°
Arg. of periapsis
314.4137°
True anomaly
Unknown
Mean anomaly
5.9272°
Eccentric anomaly
Unknown
Mean motion
0.63535 °/min
Orbital period
566.62 mins
BSTAR
0.0023467
Loading maneuver chart data...
Loading SW <> Apogee altitude chart data...
Loading historical data...
Loading historical data...
Loading historical data...
Loading historical data...
Loading historical data...
Loading historical data...
Loading historical data...

ARIANE 5 DEB Visibility forecast

Observer location: undefined°, undefined°

Span
Click to sort rows by Start time (UTC) header in descending order
Start Az.
Max El. time (UTC)
Max El. Az.
Max El.
End time (UTC)
End Az.
170 mins2025-07-12 08:23:56.834Z249.763° W2025-07-12 09:28:56.834Z248.67° W14.394°2025-07-12 11:13:56.834Z254.428° W
|